| time (UTC) | temp F | wind direction | speed MPH | gust MPH | rain 1hr in | rain 24hr in | rain mn in | humidity % | barometer mb |
| 20260504234506 | 88 | 342 | 10.0 | 18.0 | 0.00 | 0.00 | 0.00 | 17 | 1011.0 |
| 20260504233004 | 89 | 327 | 5.0 | 15.0 | 0.00 | 0.00 | 0.00 | 17 | 1011.3 |
| 20260504231503 | 89 | 321 | 10.0 | 18.0 | 0.00 | 0.00 | 0.00 | 17 | 1011.2 |
| 20260504230002 | 90 | 313 | 1.0 | 13.0 | 0.00 | 0.00 | 0.00 | 17 | 1011.4 |
| 20260504224600 | 89 | 314 | 4.0 | 18.0 | 0.00 | 0.00 | 0.00 | 17 | 1011.6 |
| 20260504223104 | 90 | 284 | 11.0 | 15.0 | 0.00 | 0.00 | 0.00 | 18 | 1011.5 |
| 20260504221607 | 89 | 323 | 11.0 | 21.0 | 0.00 | 0.00 | 0.00 | 18 | 1011.8 |
| 20260504220129 | 91 | 286 | 12.0 | 17.0 | 0.00 | 0.00 | 0.00 | 18 | 1011.8 |
| 20260504214554 | 90 | 323 | 8.0 | 19.0 | 0.00 | 0.00 | 0.00 | 17 | 1012.0 |
| 20260504213108 | 90 | 220 | 2.0 | 6.0 | 0.00 | 0.00 | 0.00 | 20 | 1012.1 |
| 20260504211550 | 88 | 281 | 10.0 | 17.0 | 0.00 | 0.00 | 0.00 | 19 | 1012.6 |
| 20260504210052 | 90 | 220 | 11.0 | 18.0 | 0.00 | 0.00 | 0.00 | 18 | 1012.6 |
| 20260504204601 | 90 | 236 | 14.0 | 22.0 | 0.00 | 0.00 | 0.00 | 17 | 1012.7 |
| 20260504203046 | 89 | 265 | 11.0 | 24.0 | 0.00 | 0.00 | 0.00 | 17 | 1012.9 |
| 20260504201547 | 89 | 213 | 11.0 | 17.0 | 0.00 | 0.00 | 0.00 | 18 | 1013.2 |
| 20260504200045 | 90 | 258 | 9.0 | 17.0 | 0.00 | 0.00 | 0.00 | 18 | 1013.4 |
| 20260504194543 | 90 | 290 | 10.0 | 18.0 | 0.00 | 0.00 | 0.00 | 20 | 1013.7 |
| 20260504193037 | 89 | 283 | 9.0 | 18.0 | 0.00 | 0.00 | 0.00 | 22 | 1013.9 |
| 20260504191538 | 88 | 286 | 5.0 | 16.0 | 0.00 | 0.00 | 0.00 | 23 | 1014.2 |
| 20260504190037 | 87 | 257 | 2.0 | 9.0 | 0.00 | 0.00 | 0.00 | 26 | 1014.6 |
| 20260504184534 | 85 | 294 | 2.0 | 12.0 | 0.00 | 0.00 | 0.00 | 28 | 1014.8 |
| 20260504183027 | 86 | 327 | 2.0 | 11.0 | 0.00 | 0.00 | 0.00 | 28 | 1015.0 |
| 20260504181525 | 85 | 342 | 5.0 | 13.0 | 0.00 | 0.00 | 0.00 | 28 | 1015.2 |
| 20260504180025 | 85 | 316 | 4.0 | 9.0 | 0.00 | 0.00 | 0.00 | 28 | 1015.4 |
| 20260504174522 | 84 | 289 | 5.0 | 9.0 | 0.00 | 0.00 | 0.00 | 28 | 1015.5 |
| 20260504173022 | 83 | 282 | 8.0 | 11.0 | 0.00 | 0.00 | 0.00 | 29 | 1015.6 |
| 20260504171520 | 83 | 312 | 4.0 | 9.0 | 0.00 | 0.00 | 0.00 | 29 | 1015.7 |
| 20260504081552 | 65 | 360 | 8.0 | 13.0 | 0.00 | 0.00 | 0.00 | 54 | 1016.2 |
| 20260504050020 | 71 | 216 | 2.0 | 13.0 | 0.00 | 0.00 | 0.00 | 41 | 1017.5 |
| 20260504044521 | 72 | 195 | 4.0 | 11.0 | 0.00 | 0.00 | 0.00 | 40 | 1017.6 |
| 20260504043034 | 73 | 225 | 7.0 | 18.0 | 0.00 | 0.00 | 0.00 | 38 | 1017.7 |
| 20260504041517 | 74 | 212 | 7.0 | 17.0 | 0.00 | 0.00 | 0.00 | 37 | 1017.8 |
| 20260504040018 | 74 | 215 | 6.0 | 14.0 | 0.00 | 0.00 | 0.00 | 36 | 1018.1 |
| 20260504034517 | 75 | 230 | 10.0 | 16.0 | 0.00 | 0.00 | 0.00 | 36 | 1017.8 |
| 20260504033015 | 75 | 217 | 9.0 | 19.0 | 0.00 | 0.00 | 0.00 | 35 | 1017.9 |
| 20260504031515 | 76 | 360 | 10.0 | 17.0 | 0.00 | 0.00 | 0.00 | 35 | 1017.8 |
| 20260504030024 | 76 | 360 | 7.0 | 13.0 | 0.00 | 0.00 | 0.00 | 34 | 1018.5 |
| 20260504024514 | 76 | 360 | 8.0 | 15.0 | 0.00 | 0.00 | 0.00 | 33 | 1018.1 |
| 20260504023013 | 77 | 360 | 6.0 | 11.0 | 0.00 | 0.00 | 0.00 | 33 | 1017.7 |
| 20260504021514 | 77 | 360 | 5.0 | 15.0 | 0.00 | 0.00 | 0.00 | 33 | 1017.5 |
| 20260504020012 | 77 | 360 | 5.0 | 18.0 | 0.00 | 0.00 | 0.00 | 33 | 1017.2 |
| 20260504014518 | 77 | 360 | 10.0 | 17.0 | 0.00 | 0.00 | 0.00 | 32 | 1016.9 |
| 20260504013029 | 77 | 360 | 7.0 | 15.0 | 0.00 | 0.00 | 0.00 | 33 | 1016.8 |
| 20260504011510 | 78 | 360 | 3.0 | 10.0 | 0.00 | 0.00 | 0.00 | 33 | 1016.8 |
| 20260504010009 | 79 | 360 | 2.0 | 9.0 | 0.00 | 0.00 | 0.00 | 32 | 1017.0 |
| 20260504004508 | 80 | 360 | 3.0 | 8.0 | 0.00 | 0.00 | 0.00 | 32 | 1016.8 |
| 20260504003008 | 80 | 360 | 1.0 | 8.0 | 0.00 | 0.00 | 0.00 | 32 | 1016.9 |
| 20260504001506 | 80 | 257 | 2.0 | 4.0 | 0.00 | 0.00 | 0.00 | 31 | 1017.1 |
| 20260504000006 | 81 | 242 | 4.0 | 8.0 | 0.00 | 0.00 | 0.00 | 31 | 1017.2 |